Regional Weather Roundup
Issued by NWS

Home | Current Version | Previous Version | Graphics & Text | Print | Product List | Glossary On
Versions: 1 2 3 4 5 6 7 8 9 10 11 12 13 14 15 16 17 18 19 20 21 22 23 24 25 26 27 28 29 30 31 32 33 34 35 36 37 38 39 40 41 42 43 44 45 46 47 48 49 50
000
ASUS43 KMKX 300800
RWRWI

WISCONSIN REGIONAL WEATHER ROUNDUP
NATIONAL WEATHER SERVICE MILWAUKEE/SULLIVAN WI
300 AM CDT THU MAR 30 2017

NOTE: "FAIR" INDICATES FEW OR NO CLOUDS BELOW 12,000 FEET WITH NO
SIGNIFICANT WEATHER AND/OR OBSTRUCTIONS TO VISIBILITY.

WIZ001-002-006>008-014>016-023>028-300900-
NORTHWEST WISCONSIN

CITY           SKY/WX    TMP DP  RH WIND       PRES   REMARKS
SUPERIOR ARPT  CLOUDY    33  32  95 NE8       30.12F WCI  26
ASHLAND        CLOUDY    30  28  92 CALM      30.12F
HAYWARD        CLOUDY    32  28  85 N3        30.07F
SIREN          CLOUDY    35  30  82 NE3       30.08F
CUMBERLAND     CLOUDY    36  32  87 E5        30.06F WCI  32
RICE LAKE      CLOUDY    39  32  76 CALM      30.07F
CHETEK         CLOUDY    38  33  81 E6        30.07S WCI  34
LADYSMITH      CLOUDY    38  29  70 E7        30.08F WCI  33
EAU CLAIRE     NOT AVBL
MENOMONIE      DRIZZLE   38  36  92 NE13      30.04F WCI  30
NEW RICHMOND   CLOUDY    38  35  86 E9        30.04F WCI  32
OSCEOLA        CLOUDY    40  36  84 E6        30.07F
$$

WIZ003>005-009-010-017-018-300900-
NORTH CENTRAL WISCONSIN

CITY           SKY/WX    TMP DP  RH WIND       PRES   REMARKS
MANITOWISH WTR CLOUDY    34  24  67 E3        30.09F
ARBOR VITAE    CLOUDY    37  25  63 SE6       30.08F WCI  32
WOODRUFF       CLOUDY    37  25  63 SE6       30.08F WCI  32
RHINELANDER    CLOUDY    35  24  64 NE7       30.08F WCI  29
EAGLE RIVER    CLOUDY    33  22  64 E6        30.09F WCI  28
LAND O LAKES   CLOUDY    34  25  70 E3        30.11F
PHILLIPS       CLOUDY    36  26  68 E5        30.08S WCI  32
TOMAHAWK       CLOUDY    34  24  67 E3        30.10R
MEDFORD        CLOUDY    34  28  77 E8        30.06S WCI  27
MERRILL        CLOUDY    35  27  71 E3        30.09R
$$

WIZ029-030-035-036-043>047-300900-
CENTRAL WISCONSIN

CITY           SKY/WX    TMP DP  RH WIND       PRES   REMARKS
WAUSAU         FLURRIES  35  29  78 E5        30.07S WCI  31
MOSINEE        FLURRIES  34  32  93 E9        30.08S WCI  26
MARSHFIELD     CLOUDY    34  32  92 E14       30.03F WCI  25
STEVENS POINT  LGT RAIN  32  32 100 E9        30.07F WCI  24
WAUPACA        LGT RAIN  37  36  93 E8        30.09S WCI  31
WAUTOMA        LGT RAIN  36  34  92 E9        30.05F WCI  29
WISC RAPIDS    LGT RAIN  34  34 100 E9        30.06F WCI  27
CAMP DOUGLAS   LGT RAIN  36  32  87 E12       30.02F WCI  27
$$

WIZ011>013-019>022-031-037>040-048>050-300900-
NORTHEAST WISCONSIN

CITY           SKY/WX    TMP DP  RH WIND       PRES   REMARKS
ANTIGO         CLOUDY    33  28  83 NE6       30.08S WCI  27
SHAWANO        CLOUDY    37  30  77 NE9       30.10F WCI  30
OCONTO         CLOUDY    34  30  85 NE3       30.11F
STURGEON BAY   CLOUDY    36  33  89 NE6       30.15R WCI  31
GREEN BAY      CLOUDY    35  35 100 NE8       30.09F WCI  29
MANITOWOC      NOT AVBL
APPLETON       CLOUDY    34  34 100 E10       30.05F WCI  26
CLINTONVILLE   CLOUDY    34  32  93 E7        30.09S WCI  28
OSHKOSH        CLOUDY    38  33  82 E9        30.05S WCI  31
$$

WIZ032>034-041-042-053>061-300900-
SOUTHWEST WISCONSIN

CITY           SKY/WX    TMP DP  RH WIND       PRES   REMARKS
LA CROSSE      LGT RAIN  39  35  86 E13G18    29.97F WCI  31
SPARTA         CLOUDY    36  35  96 NE7       30.02F FOG     WCI  30
VIROQUA        CLOUDY    35  34  98 E18       29.93F WCI  24
BOSCOBEL       LGT RAIN  39  32  76 NE8       29.93F WCI  33
PRAIRIE DU CHI LGT RAIN  38  38  97 E12G17    29.91F WCI  31
PLATTEVILLE    CLOUDY    40  40 100 E18G28    29.89F WCI  31
$$

WIZ056-057-062-063-064-067-068-300900-
SOUTH CENTRAL WISCONSIN

CITY           SKY/WX    TMP DP  RH WIND       PRES   REMARKS
REEDSBURG      RAIN      35  35 100 E9        29.97F WCI  28
BARABOO/DELLS  RAIN      36  33  90 E12       30.00F WCI  27
LONE ROCK      NOT AVBL
MINERAL POINT  LGT RAIN  39  39 100 E20       29.91F WCI  30
MADISON        RAIN      39  36  89 E16       29.96F WCI  30
MIDDLETON      CLOUDY    39  39 100 E13       29.97F WCI  32
WATERTOWN      CLOUDY    38  38  99 E16       29.99F WCI  29
MONROE         RAIN      37  37 100 E16G25    29.91F WCI  28
JANESVILLE     RAIN      41  41 100 E15       29.96R
$$

WIZ051-052-058>065-066-070>072-300900-
SOUTHEAST WISCONSIN

CITY           SKY/WX    TMP DP  RH WIND       PRES   REMARKS
MILWAUKEE      LGT RAIN  39  34  82 E17       30.01F WCI  30
WAUKESHA       CLOUDY    36  32  87 E12G22    30.00F WCI  27
MILWAUKEE/TIMM CLOUDY    36  32  87 E13G18    30.02F WCI  27
RACINE         LGT RAIN  38  34  85 E12G24    30.01F WCI  30
KENOSHA        RAIN      39  36  89 E20       29.98F FOG     WCI  29
FOND DU LAC    LGT RAIN  39  33  79 NE8       30.04F WCI  33
SHEBOYGAN      LGT RAIN  38  32  79 E10       30.04F WCI  31
WEST BEND      CLOUDY    37  36  93 E13G20    30.02F WCI  29
JUNEAU         CLOUDY    38  35  89 E8        30.03R WCI  32
$$

LSZ147-162-300900-
LAKE SUPERIOR

STATION/POSITION TIME  TEMP    WIND        PRES    WAVE
                       AIR SEA DIR/SP/G            HT/PER
                 (UTC) (F)     (DEG/KT/KT) (MB)    (FT/S)
DEVILS ISLAND    0700   34      40/ 10/ 10 1021.7F
PORT WING        0740   34      40/ 11/ 14 1020.0F
SAXON HARBOR     0740   33     330/  4/  4 1019.6S
$$

LMZ867-665-643>646-300900-
LAKE MICHIGAN

STATION/POSITION TIME  TEMP    WIND        PRES    WAVE
                       AIR SEA DIR/SP/G            HT/PER
                 (UTC) (F)     (DEG/KT/KT) (MB)    (FT/S)
CHAMBERS ISLAND  0740   36      60/  8/ 10 1020.0F
NORTHPORT PIER   0740   36     100/ 11/ 14 1021.3S
KEWAUNEE LAKESHO 0730   37     120/  9/ 10 1018.9F
SHEBOYGAN LAKESH 0700   38      90/ 12/ 13 1019.0F
PORT WASHINGTON  0740   39      90/ 17/ 20 1017.6F
MILWAUKEE LAKESH 0740   38      70/ 17/ 19   N/A
KENOSHA   LAKESH 0700   39      80/ 21/ 28 1015.6
$$

TC  - TEMPERATURE IN CELSIUS
VSB - VISIBILITY IN STATUTE MILES
WCI - WIND CHILL INDEX
HX  - HEAT INDEX




USA.gov is the U.S. government's official web portal to all federal, state and local government web resources and services.